SCP
5 4 3 3 2 2 2 2 1 1 1 1 1 2 3 3 3 3 2 2 1 1 1 1 1 1 0 0 0 0 0 0 1 1 1 2 2 2
5 5 4 3 3 2 2 2 2 1 1 1 1 2 2 2 3 3 3 2 1 1 1 1 1 1 0 0 0 0 0 0 1 1 1 1 2 2
6 5 4 3 3 3 3 2 2 2 2 2 2 2 2 2 3 4 3 3 2 1 1 1 1 1 0 0 0 0 0 0 0 1 1 1 1 1
5 5 4 4 4 4 3 3 3 2 2 2 2 2 2 3 4 4 3 2 2 1 1 1 1 1 0 0 0 0 0 0 0 0 0 1 1 1
5 5 5 5 5 5 4 3 3 3 3 2 2 2 2 3 4 4 3 2 2 1 1 1 1 1 0 0 0 0 0 0 0 0 0 0 1 1
5 5 5 5 5 4 4 4 3 2 2 2 2 2 2 3 4 4 3 3 3 2 1 1 1 1 1 1 0 0 0 0 0 0 0 0 0 0
5 5 5 4 4 3 3 3 3 2 2 2 2 2 2 3 3 3 2 3 3 3 2 2 1 1 1 1 1 1 0 0 0 0 0 0 0 0
5 5 5 4 3 2 2 2 2 2 2 2 2 2 2 2 2 2 2 2 2 2 3 2 2 2 2 1 1 1 1 0 0 0 0 0 0 0
5 5 5 4 3 2 2 2 1 1 1 2 2 2 2 2 2 2 2 2 2 2 2 2 2 2 2 2 1 1 1 0 0 0 0 0 0 0
5 5 5 4 3 2 2 2 2 2 2 2 2 2 2 2 2 2 2 2 2 2 2 2 2 2 2 2 1 1 1 0 0 0 0 0 0 0
4 4 3 3 2 1 1 2 2 2 2 2 2 2 2 2 2 2 2 2 2 2 3 3 2 2 2 2 2 1 1 1 0 0 0 0 0 0
3 3 2 1 1 1 1 1 1 2 2 2 2 2 2 2 2 2 3 3 3 3 4 4 3 3 2 2 2 1 1 1 1 1 0 0 0 0
3 3 2 1 1 0 1 1 1 1 1 2 2 2 2 2 2 3 3 3 4 4 4 4 3 3 3 2 2 2 2 2 1 1 1 0 0 0
3 2 1 1 0 0 0 0 0 1 1 1 2 2 3 3 3 3 4 4 4 4 4 3 3 3 3 2 3 3 3 3 2 1 1 1 1 0
2 1 1 0 0 0 0 0 0 0 1 1 2 2 2 2 3 3 3 3 3 4 3 3 3 3 2 2 3 3 3 3 2 2 2 1 1 1
1 1 1 0 0 0 0 0 1 1 1 1 2 2 2 2 2 3 3 3 3 3 3 3 4 3 3 2 2 3 4 3 3 2 2 2 1 1
1 2 1 1 1 1 1 1 1 1 2 2 2 2 2 2 2 2 2 2 3 3 3 4 4 4 4 3 2 2 3 3 3 2 2 2 2 2
1 1 1 1 1 1 1 1 1 1 2 2 2 2 2 2 2 2 3 2 2 2 3 4 5 5 4 3 2 2 2 3 3 2 2 2 2 2
1 1 1 1 1 1 1 1 1 1 2 2 2 2 2 2 2 2 2 2 2 2 3 4 5 5 4 3 3 2 2 3 3 3 2 2 2 2
1 1 1 1 1 1 1 1 1 1 2 2 2 2 2 2 2 2 2 2 2 2 3 4 5 5 5 4 4 3 2 3 3 3 2 2 2 2
1 1 1 1 1 1 1 1 1 1 1 1 2 1 1 2 2 1 2 2 2 2 2 3 4 5 5 5 4 3 2 2 2 2 2 2 2 2
1 1 1 1 1 2 2 1 1 1 1 1 1 1 1 1 1 1 1 1 2 2 2 3 4 5 5 5 4 3 2 1 1 1 1 1 1 1
1 1 1 1 1 2 2 1 1 1 1 1 1 1 1 1 1 1 1 1 2 2 2 3 4 5 5 5 4 3 2 1 1 0 0 0 1 1
Wind_Speed
2 1 2 2 2 2 1 1 1 1 1 1 1 2 2 3 5 3 4 6 6 5 5 4 4 4 3 3 2 3 3 4 5 6 7 7 7 7
1 1 2 2 2 2 2 2 1 1 1 1 1 1 2 3 5 3 4 7 7 7 6 6 5 5 5 4 4 3 3 4 5 6 6 6 7 7
2 1 2 2 2 2 1 1 1 1 1 2 1 0 1 2 3 2 3 4 4 7 7 7 7 7 6 6 5 5 4 4 4 5 6 7 7 7
2 2 2 2 2 2 1 2 1 1 2 2 2 1 2 2 3 3 3 3 3 7 8 8 8 8 7 7 6 6 5 5 5 5 5 6 7 7
2 2 2 2 2 2 2 2 2 2 2 2 2 2 1 2 2 3 2 1 3 5 8 9 9 8 8 8 8 7 6 6 6 5 5 5 5 6
2 2 2 2 2 2 3 2 2 2 2 2 3 2 2 2 2 2 2 2 3 3 3 5 7 9 9 8 8 8 8 7 6 6 6 6 5 5
2 2 2 2 2 2 3 2 2 2 3 3 3 2 2 2 3 3 3 2 3 3 2 3 4 4 5 7 8 8 8 7 7 7 7 6 6 6
3 2 2 2 2 3 3 3 4 4 4 3 3 3 3 2 2 2 2 2 3 2 2 3 3 3 4 4 7 9 9 9 9 8 8 7 7 7
3 2 3 3 2 2 3 5 5 6 5 4 4 4 4 3 3 3 3 3 3 2 2 3 3 3 3 4 9 11 11 10 10 9 9 8 8 8
3 3 2 2 3 2 3 3 3 4 5 5 5 5 5 4 4 4 4 4 3 2 2 3 2 2 2 2 8 11 11 11 10 10 9 9 9 8
4 3 2 2 3 3 3 3 4 4 4 5 6 6 6 6 4 2 2 3 3 3 2 2 2 2 2 2 4 9 10 10 11 10 9 9 9 8
2 2 3 3 3 3 3 3 4 4 3 3 3 5 6 7 8 6 4 4 3 3 2 2 2 1 1 2 2 3 5 8 10 10 10 9 9 5
2 2 1 1 3 3 3 3 4 4 4 4 3 4 4 4 5 6 6 5 4 4 3 2 2 2 2 2 2 3 4 3 4 5 8 10 9 7
3 2 2 2 3 5 4 4 5 4 3 3 3 3 3 3 4 4 5 5 5 5 4 3 2 3 2 2 2 2 3 3 4 4 4 6 8 9
3 3 4 4 4 4 6 7 5 3 3 4 4 4 3 3 3 3 4 4 5 5 5 4 3 3 3 3 2 2 2 3 3 3 4 4 4 4
2 3 4 5 5 5 5 4 4 3 3 4 4 3 2 2 2 2 3 3 3 4 4 4 4 3 3 3 2 3 3 3 3 3 3 3 3 4
1 3 3 2 3 3 3 3 3 3 4 3 3 3 2 2 2 2 1 2 2 3 3 3 3 3 4 3 3 3 3 2 3 3 3 3 3 3
2 3 3 3 3 3 3 3 2 2 2 2 2 3 2 2 2 2 1 2 2 3 3 3 2 2 2 3 4 4 3 2 2 3 3 3 3 3
3 3 4 3 3 3 3 3 2 2 2 2 2 2 2 2 2 2 2 2 2 3 3 3 3 3 4 4 3 3 3 2 2 2 3 3 3 3
4 3 3 3 3 2 2 2 2 2 2 2 2 2 2 2 2 3 3 3 3 3 3 3 3 4 4 4 3 2 5 4 3 3 3 2 2 3
3 3 3 3 2 2 2 2 2 2 2 2 3 3 3 3 3 2 2 3 3 2 3 3 3 4 2 2 2 2 2 4 4 3 3 3 2 3
3 3 2 2 2 2 2 2 2 2 2 3 3 3 2 2 2 3 2 2 2 2 2 2 2 2 2 3 3 3 2 2 3 3 4 4 3 4
3 2 2 2 2 2 2 2 3 3 2 2 2 2 2 2 2 2 2 2 2 2 2 2 2 2 2 3 3 3 3 3 2 2 2 4 5 5
Wind_Direction
277 269 271 276 277 287 278 230 213 246 270 241 193 158 146 133 149 157 148 159 163 170 176 182 183 185 192 195 202 208 213 215 213 209 209 213 213 210
278 280 277 286 287 270 275 283 263 228 256 271 258 156 142 161 161 165 159 165 176 185 189 192 192 195 198 199 200 204 208 214 214 209 207 208 209 205
276 268 271 280 295 298 286 284 271 214 224 270 299 198 169 166 158 177 175 177 186 193 196 200 201 202 202 202 201 205 210 214 209 207 211 209 208 208
270 271 266 274 277 288 287 275 269 238 200 227 253 236 203 184 178 200 202 198 193 195 197 202 204 205 205 205 205 206 207 209 208 210 210 209 211 211
273 266 260 264 266 274 275 266 265 260 224 212 238 229 210 200 193 211 209 226 229 203 201 206 207 209 209 207 206 205 206 208 209 211 210 206 202 203
271 267 261 253 250 252 257 253 252 262 254 230 223 214 209 205 198 208 218 225 233 234 217 200 199 207 211 209 207 205 205 206 206 208 207 204 202 200
267 268 264 257 249 249 261 257 258 257 258 251 229 229 224 206 210 211 223 226 227 230 220 209 190 202 210 212 209 206 203 203 203 204 204 203 202 203
264 269 267 236 224 234 268 265 254 246 248 252 253 238 239 236 229 232 228 227 242 232 221 230 199 200 202 201 198 196 198 199 201 203 205 206 206 206
261 262 269 265 230 245 251 253 254 251 240 239 251 252 243 240 237 243 238 233 234 232 230 239 218 215 210 196 185 189 193 198 200 202 205 207 210 210
259 244 244 260 264 265 262 257 256 252 241 234 240 249 243 233 230 231 238 248 245 236 224 239 236 229 216 183 186 189 195 200 201 202 205 207 210 213
261 248 229 238 255 260 253 257 266 270 265 247 233 236 234 237 231 225 238 243 249 245 231 228 231 238 219 200 198 196 198 204 206 205 206 210 212 211
268 242 231 240 246 251 253 260 267 274 275 272 258 243 234 227 218 212 218 230 242 246 235 224 228 215 249 231 198 195 206 213 213 210 210 214 211 205
271 268 258 232 240 245 247 251 256 275 282 268 257 250 239 224 215 212 211 215 225 239 220 207 222 216 219 226 218 199 196 194 196 211 214 216 211 202
266 273 283 273 260 254 251 250 261 270 267 263 257 251 241 229 221 215 208 211 218 230 227 210 222 217 219 226 229 212 208 197 188 191 195 202 212 215
265 281 287 275 271 257 248 247 248 247 249 254 254 253 245 231 218 212 213 215 223 235 225 218 220 222 210 225 217 207 210 214 202 192 188 189 191 192
286 299 274 259 261 259 256 243 232 232 240 250 258 260 255 240 219 215 218 216 227 240 230 223 226 228 225 225 218 217 208 202 198 195 188 191 191 189
286 279 263 251 247 242 237 237 237 229 233 245 257 264 256 248 241 219 207 210 225 231 227 224 223 218 218 220 228 224 216 210 191 182 182 192 197 195
234 258 261 252 252 255 251 245 242 241 239 252 259 266 260 249 241 227 206 218 229 232 225 211 208 224 245 249 231 223 219 208 194 187 191 191 207 205
228 251 256 249 250 252 253 250 248 242 235 241 255 262 260 260 250 237 225 223 232 236 227 206 198 204 225 244 257 224 206 207 201 207 208 199 209 207
233 242 252 249 245 250 252 251 249 239 234 236 245 258 260 260 255 240 234 230 236 244 237 221 210 209 216 228 239 241 219 208 201 206 214 215 209 194
250 252 252 252 251 252 257 254 255 253 247 240 240 244 247 250 256 251 249 241 236 237 235 234 230 213 217 222 238 233 225 217 203 198 205 208 213 207
238 247 256 268 261 253 255 257 258 261 260 251 246 250 251 251 257 255 253 247 240 242 246 242 226 210 215 223 236 230 229 230 225 220 221 213 201 207
238 239 240 254 257 250 251 250 249 250 253 263 257 253 254 248 247 251 246 236 232 238 239 243 238 220 222 224 232 234 231 232 227 210 242 245 222 222